Stündliche Wetter Abryutino

Heute, 17 Juni, Donnerstag

Zeit Temperatur Niederschläge Wind Luftdruck Luftfeuchtigkeit
00:00 +13°C° 0 mm 2 m/S 749 mmHg 78%
01:00 +13°C° 0 mm 2 m/S 750 mmHg 76%
02:00 +13°C° 0 mm 2 m/S 750 mmHg 76%
03:00 +13°C° 0 mm 2 m/S 750 mmHg 77%
04:00 +14°C° 0 mm 2 m/S 750 mmHg 78%
05:00 +14°C° 0 mm 2 m/S 751 mmHg 79%
06:00 +16°C° 0 mm 2 m/S 751 mmHg 73%
07:00 +18°C° 0 mm 3 m/S 751 mmHg 68%
08:00 +20°C° 0 mm 3 m/S 752 mmHg 62%
09:00 +21°C° 0 mm 3 m/S 752 mmHg 58%
10:00 +22°C° 0 mm 3 m/S 752 mmHg 54%
11:00 +24°C° 0 mm 2 m/S 752 mmHg 50%
12:00 +24°C° 0 mm 2 m/S 753 mmHg 50%
13:00 +24°C° 0 mm 2 m/S 753 mmHg 50%
14:00 +25°C° 0 mm 2 m/S 753 mmHg 50%
15:00 +24°C° 0 mm 3 m/S 753 mmHg 55%
16:00 +24°C° 0 mm 3 m/S 752 mmHg 60%
17:00 +24°C° 0 mm 3 m/S 752 mmHg 66%
18:00 +21°C° 0 mm 3 m/S 753 mmHg 70%
19:00 +19°C° 0 mm 2 m/S 753 mmHg 74%
20:00 +17°C° 0 mm 2 m/S 753 mmHg 78%
21:00 +16°C° 0 mm 2 m/S 753 mmHg 80%
22:00 +15°C° 0 mm 2 m/S 754 mmHg 81%
23:00 +14°C° 0 mm 2 m/S 754 mmHg 82%

Morgen, 18 Juni, Freitag

Zeit Temperatur Niederschläge Wind Luftdruck Luftfeuchtigkeit
00:00 +14°C° 0 mm 2 m/S 754 mmHg 81%
01:00 +14°C° 0 mm 2 m/S 754 mmHg 80%
02:00 +13°C° 0 mm 2 m/S 755 mmHg 79%
03:00 +14°C° 0 mm 2 m/S 755 mmHg 79%
04:00 +14°C° 0 mm 2 m/S 755 mmHg 80%
05:00 +15°C° 0 mm 2 m/S 755 mmHg 80%
06:00 +17°C° 0 mm 2 m/S 755 mmHg 75%
07:00 +18°C° 0 mm 2 m/S 756 mmHg 70%
08:00 +20°C° 0 mm 3 m/S 756 mmHg 65%
09:00 +21°C° 0 mm 3 m/S 756 mmHg 62%
10:00 +22°C° 0 mm 3 m/S 756 mmHg 60%
11:00 +24°C° 0 mm 3 m/S 756 mmHg 57%
12:00 +24°C° 0 mm 3 m/S 756 mmHg 57%
13:00 +24°C° 0 mm 3 m/S 755 mmHg 56%
14:00 +25°C° 0 mm 3 m/S 755 mmHg 56%
15:00 +24°C° 0 mm 3 m/S 755 mmHg 60%
16:00 +24°C° 0 mm 2 m/S 755 mmHg 64%
17:00 +24°C° 0 mm 2 m/S 755 mmHg 67%
18:00 +21°C° 0 mm 2 m/S 755 mmHg 73%
19:00 +19°C° 0 mm 2 m/S 755 mmHg 78%
20:00 +18°C° 0 mm 2 m/S 755 mmHg 84%
21:00 +17°C° 0 mm 2 m/S 755 mmHg 85%
22:00 +16°C° 0 mm 2 m/S 755 mmHg 86%
23:00 +15°C° 0 mm 2 m/S 755 mmHg 88%

übermorgen, 19 Juni, Samstag

Zeit Temperatur Niederschläge Wind Luftdruck Luftfeuchtigkeit
00:00 +15°C° 0 mm 1 m/S 755 mmHg 88%
01:00 +15°C° 0 mm 1 m/S 755 mmHg 88%
02:00 +14°C° 0 mm 1 m/S 755 mmHg 89%
03:00 +15°C° 0 mm 1 m/S 755 mmHg 87%
04:00 +16°C° 0 mm 1 m/S 756 mmHg 86%
05:00 +16°C° 0 mm 1 m/S 756 mmHg 85%
06:00 +19°C° 0 mm 1 m/S 756 mmHg 80%
07:00 +20°C° 0 mm 1 m/S 756 mmHg 75%
08:00 +21°C° 0 mm 2 m/S 756 mmHg 70%
09:00 +23°C° 0 mm 2 m/S 755 mmHg 67%
10:00 +24°C° 0 mm 2 m/S 755 mmHg 64%
11:00 +25°C° 0 mm 2 m/S 755 mmHg 61%
12:00 +25°C° 0 mm 2 m/S 755 mmHg 59%
13:00 +25°C° 0 mm 2 m/S 754 mmHg 58%
14:00 +26°C° 0 mm 2 m/S 754 mmHg 56%
15:00 +26°C° 0 mm 2 m/S 754 mmHg 60%
16:00 +25°C° 0 mm 2 m/S 754 mmHg 63%
17:00 +25°C° 0 mm 2 m/S 753 mmHg 66%
18:00 +23°C° 0 mm 2 m/S 753 mmHg 72%
19:00 +21°C° 0 mm 1 m/S 753 mmHg 77%
20:00 +19°C° 0 mm 1 m/S 753 mmHg 82%
21:00 +19°C° 0 mm 1 m/S 753 mmHg 84%
22:00 +18°C° 0 mm 1 m/S 753 mmHg 86%
23:00 +16°C° 0 mm 1 m/S 753 mmHg 88%

20 Juni, Sonntag

Zeit Temperatur Niederschläge Wind Luftdruck Luftfeuchtigkeit
00:00 +16°C° 0 mm 1 m/S 754 mmHg 89%
01:00 +15°C° 0 mm 1 m/S 754 mmHg 89%
02:00 +15°C° 0 mm 1 m/S 754 mmHg 90%
03:00 +16°C° 0 mm 1 m/S 754 mmHg 89%
04:00 +16°C° 0 mm 1 m/S 754 mmHg 88%
05:00 +18°C° 0 mm 1 m/S 754 mmHg 86%
06:00 +19°C° 0 mm 1 m/S 754 mmHg 81%
07:00 +21°C° 0 mm 1 m/S 753 mmHg 75%
08:00 +23°C° 0 mm 2 m/S 753 mmHg 69%
09:00 +24°C° 0 mm 2 m/S 753 mmHg 65%
10:00 +25°C° 0 mm 2 m/S 753 mmHg 61%
11:00 +26°C° 0 mm 2 m/S 753 mmHg 57%
12:00 +26°C° 0 mm 2 m/S 753 mmHg 56%
13:00 +26°C° 0 mm 2 m/S 752 mmHg 55%
14:00 +27°C° 0 mm 2 m/S 752 mmHg 55%
15:00 +27°C° 0 mm 2 m/S 752 mmHg 58%
16:00 +27°C° 0 mm 2 m/S 752 mmHg 62%
17:00 +26°C° 0 mm 1 m/S 752 mmHg 65%
18:00 +25°C° 0 mm 1 m/S 752 mmHg 71%
19:00 +23°C° 0 mm 1 m/S 751 mmHg 77%
20:00 +21°C° 0 mm 1 m/S 751 mmHg 82%
21:00 +20°C° 0 mm 1 m/S 751 mmHg 84%
22:00 +20°C° 0 mm 1 m/S 751 mmHg 86%
23:00 +19°C° 0 mm 1 m/S 751 mmHg 88%

21 Juni, Montag

Zeit Temperatur Niederschläge Wind Luftdruck Luftfeuchtigkeit
00:00 +19°C° 0 mm 1 m/S 751 mmHg 88%
01:00 +18°C° 0 mm 1 m/S 751 mmHg 88%
02:00 +18°C° 0 mm 1 m/S 751 mmHg 89%
03:00 +19°C° 0 mm 1 m/S 751 mmHg 88%
04:00 +19°C° 0 mm 1 m/S 751 mmHg 87%
05:00 +20°C° 0 mm 1 m/S 751 mmHg 86%
06:00 +20°C° 0 mm 2 m/S 751 mmHg 82%
07:00 +23°C° 0 mm 2 m/S 751 mmHg 77%
08:00 +24°C° 0 mm 2 m/S 751 mmHg 73%
09:00 +25°C° 0 mm 2 m/S 751 mmHg 71%
10:00 +25°C° 0 mm 3 m/S 751 mmHg 70%
11:00 +26°C° 0 mm 3 m/S 751 mmHg 68%
12:00 +26°C° 0 mm 3 m/S 751 mmHg 68%
13:00 +26°C° 0 mm 2 m/S 750 mmHg 69%
14:00 +27°C° 0 mm 2 m/S 750 mmHg 69%
15:00 +27°C° 0 mm 2 m/S 750 mmHg 72%
16:00 +27°C° 0 mm 2 m/S 750 mmHg 74%
17:00 +27°C° 0 mm 2 m/S 750 mmHg 76%
18:00 +25°C° 0 mm 2 m/S 750 mmHg 80%
19:00 +24°C° 0 mm 2 m/S 750 mmHg 85%
20:00 +23°C° 0 mm 2 m/S 750 mmHg 89%
21:00 +21°C° 0 mm 2 m/S 750 mmHg 90%
22:00 +20°C° 0 mm 2 m/S 750 mmHg 91%
23:00 +20°C° 0 mm 2 m/S 750 mmHg 91%

22 Juni, Dienstag

Zeit Temperatur Niederschläge Wind Luftdruck Luftfeuchtigkeit
00:00 +19°C° 0 mm 2 m/S 750 mmHg 92%
01:00 +19°C° 0 mm 2 m/S 750 mmHg 92%
02:00 +19°C° 0 mm 2 m/S 750 mmHg 92%
03:00 +19°C° 0 mm 2 m/S 750 mmHg 91%
04:00 +20°C° 0 mm 2 m/S 750 mmHg 90%
05:00 +20°C° 0 mm 2 m/S 750 mmHg 89%
06:00 +23°C° 0 mm 2 m/S 750 mmHg 84%
07:00 +25°C° 0 mm 2 m/S 750 mmHg 78%
08:00 +26°C° 0 mm 3 m/S 750 mmHg 72%
09:00 +27°C° 0 mm 3 m/S 750 mmHg 69%
10:00 +28°C° 0 mm 3 m/S 750 mmHg 65%
11:00 +29°C° 0 mm 3 m/S 750 mmHg 61%
12:00 +30°C° 0 mm 3 m/S 750 mmHg 60%
13:00 +30°C° 0 mm 3 m/S 750 mmHg 58%
14:00 +30°C° 0 mm 3 m/S 750 mmHg 57%
15:00 +30°C° 0 mm 3 m/S 750 mmHg 60%
16:00 +30°C° 0 mm 2 m/S 750 mmHg 64%
17:00 +29°C° 0 mm 2 m/S 750 mmHg 67%
18:00 +28°C° 0 mm 2 m/S 750 mmHg 73%
19:00 +26°C° 0 mm 2 m/S 750 mmHg 79%
20:00 +24°C° 0 mm 2 m/S 750 mmHg 84%
21:00 +23°C° 0 mm 2 m/S 750 mmHg 86%
22:00 +23°C° 0 mm 2 m/S 750 mmHg 88%
23:00 +21°C° 0 mm 2 m/S 750 mmHg 89%
Mehr zeigen

Wir brauchen deine Erlaubnis

Meteoprog und unser Service Anbieter werden persönliche Daten aufbewahren, so wie Cookies, Geräte Bezeichnung oder ähnliche Technologien von deinem Gerät und Prozess, so wie Persönliche Daten Inhalte und Werbungen, genauso wie social Media und den Verkehr zu analysieren.

  • Aufbewahrung und/oder Zugang zu deiner Geräte Informationen.

    Cookies, Geräte Bezeichnung oder andere Informationen, können aufbewahrt oder Zugang zu deinem Gerät erhalten, für den Grund, der oben angegeben wird.

  • Personalisierte Werbung und Inhalte, Messungen, Einblick in das Publikum und Produkt Entwicklung.

    Werbungen und Inhalte können personalisiert werden, basierend auf ein Profil. Mehr Daten können besser personalisierte Werbungen und Inhalte hinzufügen. Werbung und Inhalte können gezeigt und gemessen werden. Einblicke über das Publikum, welche die Werbung gesehen haben und den Inhalt, können abgeleitet werden. So wie Daten können genutzt werden, um es zu verbessern oder die Benutzer Erfahrung zu verbessern das System und die Software.

Wenn du “Ich stimme zu” klickst, erlaubst du uns, die Cookies zu benutzen die Geräte Bezeichnung, den Web oder ähnliche Technologien zu benutzen. Deine Settings, können in deinem Gerät bei deinem Browser geändert werden.

Für den bestimmten Zweck, berechtigten Interessen beruhen darauf, mehr als auf den Inhalt. Du kannst mehr darüber in unseren Privaten und Cookie Politik lesen.